TimeBRST,TemperatureF,Dew PointF,Humidity,Sea Level PressureIn,VisibilityMPH,Wind Direction,Wind SpeedMPH,Gust SpeedMPH,PrecipitationIn,Events,Conditions,WindDirDegrees,DateUTC
12:00 AM,77.0,71.6,83,29.92,-9999.0,ESE,3.5,-,N/A,,Clear,110,2012-12-09 02:00:00
1:00 AM,77.0,71.6,83,29.92,-9999.0,NE,2.3,-,N/A,,Clear,50,2012-12-09 03:00:00
2:00 AM,77.0,71.6,83,29.89,-9999.0,East,2.3,-,N/A,,Clear,100,2012-12-09 04:00:00
3:00 AM,75.2,69.8,83,29.89,-9999.0,East,4.6,-,N/A,,Clear,100,2012-12-09 05:00:00
4:00 AM,73.4,69.8,88,29.89,-9999.0,East,4.6,-,N/A,,Clear,100,2012-12-09 06:00:00
5:00 AM,73.4,69.8,88,29.89,-9999.0,ESE,4.6,-,N/A,,Clear,110,2012-12-09 07:00:00
6:00 AM,75.2,69.8,83,29.89,-9999.0,ESE,8.1,-,N/A,,Clear,110,2012-12-09 08:00:00
7:00 AM,75.2,69.8,83,29.92,-9999.0,East,5.8,-,N/A,,Clear,100,2012-12-09 09:00:00
8:00 AM,77.0,69.8,78,29.95,-9999.0,ESE,4.6,-,N/A,,Clear,120,2012-12-09 10:00:00
9:00 AM,78.8,71.6,78,29.95,5.6,ESE,3.5,-,N/A,,Unknown,110,2012-12-09 11:00:00
10:00 AM,80.6,71.6,74,29.95,5.6,ENE,2.3,-,N/A,,Unknown,70,2012-12-09 12:00:00
11:00 AM,86.0,73.4,66,29.95,5.6,NNE,3.5,-,N/A,,Unknown,30,2012-12-09 13:00:00
12:00 PM,89.6,71.6,55,29.95,5.6,North,4.6,-,N/A,,Unknown,10,2012-12-09 14:00:00
1:00 PM,93.2,75.2,56,29.89,6.2,South,4.6,-,N/A,,Partly Cloudy,190,2012-12-09 15:00:00
2:00 PM,93.2,71.6,49,29.86,6.2,South,4.6,-,N/A,,Scattered Clouds,170,2012-12-09 16:00:00
3:00 PM,91.4,71.6,52,29.86,6.2,NNE,4.6,-,N/A,,Scattered Clouds,20,2012-12-09 17:00:00
3:20 PM,82.4,71.6,70,29.86,1.9,West,11.5,28.8,N/A,Rain-Thunderstorm,Thunderstorms and Rain,260,2012-12-09 17:20:00
4:00 PM,86.0,75.2,70,29.83,6.2,SE,8.1,19.6,N/A,Rain-Thunderstorm,Light Thunderstorms and Rain,130,2012-12-09 18:00:00
5:00 PM,77.0,68.0,74,29.83,6.2,NNW,17.3,28.8,N/A,Rain-Thunderstorm,Light Thunderstorms and Rain,330,2012-12-09 19:00:00
6:00 PM,75.2,69.8,83,29.83,6.2,NW,4.6,-,N/A,Rain-Thunderstorm,Light Thunderstorms and Rain,320,2012-12-09 20:00:00
6:40 PM,73.4,69.8,88,29.89,3.1,SW,9.2,20.7,N/A,Rain-Thunderstorm,Thunderstorms and Rain,220,2012-12-09 20:40:00
7:00 PM,71.6,69.8,94,-9999,3.1,SSW,10.4,-,N/A,Rain-Thunderstorm,Light Thunderstorms and Rain,210,2012-12-09 21:00:00
8:00 PM,71.6,68.0,88,-9999,5.0,SE,5.8,-,N/A,Rain-Thunderstorm,Light Thunderstorms and Rain,130,2012-12-09 22:00:00
9:00 PM,71.6,68.0,88,29.89,6.2,SE,5.8,-,N/A,,Overcast,140,2012-12-09 23:00:00
10:00 PM,71.6,68.0,88,29.92,6.2,ESE,6.9,-,N/A,,Overcast,110,2012-12-10 00:00:00
11:00 PM,71.6,68.0,88,29.95,-9999.0,SE,8.1,-,N/A,,Clear,130,2012-12-10 01:00:00